Saint Bonnet de Bellac- Haute Vienne - France
Donnes mto: mercredi, 02/11/2011
Date Horaire Temp. E. Hum. E. P.atmo. Pluie Vent Direction Direction Ensoleilleme Solaire P. de rose Temp au vent Rafales
02/11/2011 00:00 8,6 C 93 % 1013,3 hPa 0,0 mm 0,0 km/h (0 Bft) E-SE 112 0 min 0 W/m 7,5 C 8,6 C 0,0 km/h (0 Bft)
02/11/2011 00:05 8,6 C 93 % 1013,3 hPa 0,0 mm 0,0 km/h (0 Bft) E-SE 112 0 min 0 W/m 7,5 C 8,6 C 0,0 km/h (0 Bft)
02/11/2011 00:10 8,6 C 93 % 1013,3 hPa 0,0 mm 0,0 km/h (0 Bft) E-SE 112 0 min 0 W/m 7,5 C 8,6 C 0,0 km/h (0 Bft)
02/11/2011 00:15 8,6 C 93 % 1013,2 hPa 0,0 mm 1,1 km/h (1 Bft) E-SE 112 0 min 0 W/m 7,5 C 8,6 C 4,0 km/h (1 Bft)
02/11/2011 00:20 8,6 C 93 % 1013,2 hPa 0,0 mm 1,8 km/h (1 Bft) E 90 0 min 0 W/m 7,5 C 8,6 C 3,2 km/h (1 Bft)
02/11/2011 00:25 8,6 C 93 % 1013,2 hPa 0,0 mm 0,7 km/h (0 Bft) E-NE 67 0 min 0 W/m 7,5 C 8,6 C 0,7 km/h (0 Bft)
02/11/2011 00:30 8,6 C 94 % 1013,1 hPa 0,0 mm 2,9 km/h (1 Bft) E 90 0 min 0 W/m 7,7 C 8,6 C 4,3 km/h (1 Bft)
02/11/2011 00:35 8,8 C 94 % 1013,1 hPa 0,0 mm 1,1 km/h (1 Bft) E-SE 112 0 min 0 W/m 7,9 C 8,8 C 4,0 km/h (1 Bft)
02/11/2011 00:40 8,8 C 94 % 1013,0 hPa 0,0 mm 0,4 km/h (0 Bft) E-SE 112 0 min 0 W/m 7,9 C 8,8 C 1,4 km/h (1 Bft)
02/11/2011 00:45 8,9 C 94 % 1012,9 hPa 0,0 mm 1,1 km/h (1 Bft) SE 135 0 min 0 W/m 8,0 C 8,9 C 3,6 km/h (1 Bft)
02/11/2011 00:50 8,9 C 94 % 1012,9 hPa 0,0 mm 1,8 km/h (1 Bft) E 90 0 min 0 W/m 8,0 C 8,9 C 4,3 km/h (1 Bft)
02/11/2011 00:55 8,9 C 94 % 1012,8 hPa 0,0 mm 1,4 km/h (1 Bft) E-SE 112 0 min 0 W/m 8,0 C 8,9 C 4,0 km/h (1 Bft)
02/11/2011 01:00 9,1 C 94 % 1012,8 hPa 0,0 mm 0,4 km/h (0 Bft) E-SE 112 0 min 0 W/m 8,2 C 9,1 C 4,0 km/h (1 Bft)
02/11/2011 01:05 9,1 C 94 % 1012,7 hPa 0,0 mm 0,0 km/h (0 Bft) SE 135 0 min 0 W/m 8,2 C 9,1 C 0,0 km/h (0 Bft)
02/11/2011 01:10 9,1 C 94 % 1012,7 hPa 0,0 mm 0,0 km/h (0 Bft) SE 135 0 min 0 W/m 8,2 C 9,1 C 0,0 km/h (0 Bft)
02/11/2011 01:15 9,2 C 94 % 1012,7 hPa 0,0 mm 0,0 km/h (0 Bft) E-SE 112 0 min 0 W/m 8,3 C 9,2 C 0,0 km/h (0 Bft)
02/11/2011 01:20 9,2 C 94 % 1012,7 hPa 0,0 mm 1,1 km/h (1 Bft) E-SE 112 0 min 0 W/m 8,3 C 9,2 C 4,3 km/h (1 Bft)
02/11/2011 01:25 9,1 C 94 % 1012,6 hPa 0,0 mm 0,7 km/h (0 Bft) E-SE 112 0 min 0 W/m 8,2 C 9,1 C 4,0 km/h (1 Bft)
02/11/2011 01:30 9,1 C 94 % 1012,5 hPa 0,0 mm 0,7 km/h (0 Bft) E-SE 112 0 min 0 W/m 8,2 C 9,1 C 0,7 km/h (0 Bft)
02/11/2011 01:35 9,2 C 94 % 1012,4 hPa 0,0 mm 0,0 km/h (0 Bft) E-SE 112 0 min 0 W/m 8,3 C 9,2 C 0,0 km/h (0 Bft)
02/11/2011 01:40 9,2 C 94 % 1012,4 hPa 0,0 mm 2,9 km/h (1 Bft) E-SE 112 0 min 0 W/m 8,3 C 9,2 C 4,3 km/h (1 Bft)
02/11/2011 01:45 9,2 C 94 % 1012,2 hPa 0,0 mm 1,1 km/h (1 Bft) E 90 0 min 0 W/m 8,3 C 9,2 C 1,1 km/h (1 Bft)
02/11/2011 01:50 9,2 C 94 % 1012,1 hPa 0,0 mm 1,4 km/h (1 Bft) E-SE 112 0 min 0 W/m 8,3 C 9,2 C 1,4 km/h (1 Bft)
02/11/2011 01:55 9,2 C 94 % 1011,9 hPa 0,0 mm 4,0 km/h (1 Bft) E-SE 112 0 min 0 W/m 8,3 C 9,2 C 4,0 km/h (1 Bft)
02/11/2011 02:02 9,2 C 94 % 1011,8 hPa 0,0 mm 5,0 km/h (1 Bft) SE 135 0 min 0 W/m 8,3 C 8,8 C 8,3 km/h (2 Bft)
02/11/2011 02:05 9,2 C 94 % 1011,8 hPa 0,0 mm 4,3 km/h (1 Bft) E 90 0 min 0 W/m 8,3 C 9,2 C 7,2 km/h (2 Bft)
02/11/2011 02:10 9,2 C 94 % 1011,7 hPa 0,0 mm 2,9 km/h (1 Bft) E 90 0 min 0 W/m 8,3 C 9,2 C 7,2 km/h (2 Bft)
02/11/2011 02:15 9,1 C 94 % 1011,7 hPa 0,0 mm 0,0 km/h (0 Bft) E-NE 67 0 min 0 W/m 8,2 C 9,1 C 3,2 km/h (1 Bft)
02/11/2011 02:20 9,1 C 94 % 1011,6 hPa 0,0 mm 1,4 km/h (1 Bft) E 90 0 min 0 W/m 8,2 C 9,1 C 4,3 km/h (1 Bft)
02/11/2011 02:25 9,1 C 94 % 1011,5 hPa 0,0 mm 1,1 km/h (1 Bft) E-SE 112 0 min 0 W/m 8,2 C 9,1 C 1,1 km/h (1 Bft)
02/11/2011 02:30 9,1 C 94 % 1011,4 hPa 0,0 mm 0,0 km/h (0 Bft) E-SE 112 0 min 0 W/m 8,2 C 9,1 C 0,0 km/h (0 Bft)
02/11/2011 02:35 9,1 C 94 % 1011,4 hPa 0,0 mm 1,8 km/h (1 Bft) E-SE 112 0 min 0 W/m 8,2 C 9,1 C 3,6 km/h (1 Bft)
02/11/2011 02:40 9,1 C 94 % 1011,3 hPa 0,0 mm 1,8 km/h (1 Bft) E-SE 112 0 min 0 W/m 8,2 C 9,1 C 4,3 km/h (1 Bft)
02/11/2011 02:45 9,2 C 94 % 1011,2 hPa 0,0 mm 2,2 km/h (1 Bft) S-SE 157 0 min 0 W/m 8,3 C 9,2 C 7,2 km/h (2 Bft)
02/11/2011 02:50 9,2 C 94 % 1011,2 hPa 0,0 mm 3,2 km/h (1 Bft) E-SE 112 0 min 0 W/m 8,3 C 9,2 C 6,1 km/h (2 Bft)
02/11/2011 02:55 9,3 C 94 % 1011,1 hPa 0,0 mm 4,3 km/h (1 Bft) E-SE 112 0 min 0 W/m 8,4 C 9,3 C 4,3 km/h (1 Bft)
02/11/2011 03:00 9,4 C 94 % 1011,0 hPa 0,0 mm 1,4 km/h (1 Bft) E 90 0 min 0 W/m 8,5 C 9,4 C 3,6 km/h (1 Bft)
02/11/2011 03:05 9,4 C 94 % 1010,9 hPa 0,0 mm 0,7 km/h (0 Bft) E-SE 112 0 min 0 W/m 8,5 C 9,4 C 3,6 km/h (1 Bft)
02/11/2011 03:10 9,4 C 94 % 1010,8 hPa 0,0 mm 4,0 km/h (1 Bft) E 90 0 min 0 W/m 8,5 C 9,4 C 7,2 km/h (2 Bft)
02/11/2011 03:15 9,4 C 94 % 1010,8 hPa 0,0 mm 1,4 km/h (1 Bft) SE 135 0 min 0 W/m 8,5 C 9,4 C 4,0 km/h (1 Bft)
02/11/2011 03:20 9,4 C 94 % 1010,7 hPa 0,0 mm 0,0 km/h (0 Bft) E-SE 112 0 min 0 W/m 8,5 C 9,4 C 0,0 km/h (0 Bft)
02/11/2011 03:25 9,4 C 94 % 1010,6 hPa 0,0 mm 1,4 km/h (1 Bft) E-SE 112 0 min 0 W/m 8,5 C 9,4 C 3,6 km/h (1 Bft)
02/11/2011 03:30 9,4 C 94 % 1010,5 hPa 0,0 mm 0,4 km/h (0 Bft) E 90 0 min 0 W/m 8,5 C 9,4 C 2,9 km/h (1 Bft)
02/11/2011 03:35 9,4 C 94 % 1010,3 hPa 0,0 mm 0,7 km/h (0 Bft) E 90 0 min 0 W/m 8,5 C 9,4 C 6,5 km/h (2 Bft)
02/11/2011 03:40 9,4 C 94 % 1010,3 hPa 0,0 mm 0,0 km/h (0 Bft) E-SE 112 0 min 0 W/m 8,5 C 9,4 C 0,0 km/h (0 Bft)
02/11/2011 03:45 9,4 C 94 % 1010,2 hPa 0,0 mm 0,4 km/h (0 Bft) E-SE 112 0 min 0 W/m 8,5 C 9,4 C 3,2 km/h (1 Bft)
02/11/2011 03:50 9,6 C 94 % 1010,2 hPa 0,0 mm 0,0 km/h (0 Bft) E-SE 112 0 min 0 W/m 8,7 C 9,6 C 1,4 km/h (1 Bft)
02/11/2011 03:55 9,6 C 94 % 1010,2 hPa 0,0 mm 1,1 km/h (1 Bft) E-SE 112 0 min 0 W/m 8,7 C 9,6 C 4,3 km/h (1 Bft)
02/11/2011 04:00 9,6 C 94 % 1010,1 hPa 0,0 mm 0,4 km/h (0 Bft) E-SE 112 0 min 0 W/m 8,7 C 9,6 C 4,3 km/h (1 Bft)
02/11/2011 04:05 9,6 C 94 % 1010,1 hPa 0,0 mm 1,8 km/h (1 Bft) E-SE 112 0 min 0 W/m 8,7 C 9,6 C 4,0 km/h (1 Bft)
02/11/2011 04:10 9,5 C 94 % 1010,0 hPa 0,0 mm 3,2 km/h (1 Bft) E 90 0 min 0 W/m 8,6 C 9,5 C 4,3 km/h (1 Bft)
02/11/2011 04:15 9,5 C 94 % 1010,0 hPa 0,0 mm 1,1 km/h (1 Bft) E 90 0 min 0 W/m 8,6 C 9,5 C 4,0 km/h (1 Bft)
02/11/2011 04:20 9,5 C 94 % 1009,9 hPa 0,0 mm 1,4 km/h (1 Bft) E-NE 67 0 min 0 W/m 8,6 C 9,5 C 3,6 km/h (1 Bft)
02/11/2011 04:25 9,6 C 94 % 1009,8 hPa 0,0 mm 0,7 km/h (0 Bft) E 90 0 min 0 W/m 8,7 C 9,6 C 6,5 km/h (2 Bft)
02/11/2011 04:30 9,6 C 94 % 1009,8 hPa 0,0 mm 0,0 km/h (0 Bft) SE 135 0 min 0 W/m 8,7 C 9,6 C 0,0 km/h (0 Bft)
02/11/2011 04:35 9,6 C 94 % 1009,8 hPa 0,0 mm 2,9 km/h (1 Bft) E-SE 112 0 min 0 W/m 8,7 C 9,6 C 6,1 km/h (2 Bft)
02/11/2011 04:40 9,8 C 94 % 1009,6 hPa 0,0 mm 0,0 km/h (0 Bft) E 90 0 min 0 W/m 8,9 C 9,8 C 3,6 km/h (1 Bft)
02/11/2011 04:45 9,8 C 94 % 1009,4 hPa 0,0 mm 1,1 km/h (1 Bft) E-SE 112 0 min 0 W/m 8,9 C 9,8 C 4,3 km/h (1 Bft)
02/11/2011 04:50 9,8 C 94 % 1009,3 hPa 0,0 mm 2,9 km/h (1 Bft) E-SE 112 0 min 0 W/m 8,9 C 9,8 C 4,3 km/h (1 Bft)
02/11/2011 04:55 9,9 C 94 % 1009,2 hPa 0,0 mm 3,2 km/h (1 Bft) E 90 0 min 0 W/m 9,0 C 9,9 C 7,2 km/h (2 Bft)
02/11/2011 05:00 10,0 C 94 % 1009,1 hPa 0,0 mm 3,2 km/h (1 Bft) N 360 0 min 0 W/m 9,1 C 10,0 C 3,2 km/h (1 Bft)
02/11/2011 05:05 10,1 C 94 % 1009,0 hPa 0,0 mm 2,9 km/h (1 Bft) E-SE 112 0 min 0 W/m 9,2 C 10,1 C 4,3 km/h (1 Bft)
02/11/2011 05:10 10,3 C 94 % 1009,0 hPa 0,0 mm 3,6 km/h (1 Bft) S-SE 157 0 min 0 W/m 9,4 C 10,3 C 3,6 km/h (1 Bft)
02/11/2011 05:15 10,3 C 94 % 1009,0 hPa 0,0 mm 0,0 km/h (0 Bft) SE 135 0 min 0 W/m 9,4 C 10,3 C 0,0 km/h (0 Bft)
02/11/2011 05:20 10,4 C 94 % 1008,9 hPa 0,0 mm 3,2 km/h (1 Bft) SE 135 0 min 0 W/m 9,5 C 10,4 C 6,1 km/h (2 Bft)
02/11/2011 05:25 10,6 C 94 % 1008,9 hPa 0,0 mm 0,4 km/h (0 Bft) SE 135 0 min 0 W/m 9,7 C 10,6 C 3,2 km/h (1 Bft)
02/11/2011 05:30 10,6 C 94 % 1008,8 hPa 0,0 mm 1,1 km/h (1 Bft) SE 135 0 min 0 W/m 9,7 C 10,6 C 4,0 km/h (1 Bft)
02/11/2011 05:35 10,8 C 94 % 1008,7 hPa 0,0 mm 0,7 km/h (0 Bft) SE 135 0 min 0 W/m 9,9 C 10,8 C 4,3 km/h (1 Bft)
02/11/2011 05:40 10,9 C 94 % 1008,7 hPa 0,0 mm 5,8 km/h (2 Bft) S-SE 157 0 min 0 W/m 10,0 C 10,9 C 9,4 km/h (2 Bft)
02/11/2011 05:45 11,1 C 94 % 1008,6 hPa 0,0 mm 3,2 km/h (1 Bft) SE 135 0 min 0 W/m 10,2 C 11,1 C 4,3 km/h (1 Bft)
02/11/2011 05:50 11,2 C 93 % 1008,6 hPa 0,0 mm 3,2 km/h (1 Bft) S-SE 157 0 min 0 W/m 10,1 C 11,2 C 4,3 km/h (1 Bft)
02/11/2011 05:55 11,4 C 93 % 1008,5 hPa 0,0 mm 3,2 km/h (1 Bft) N 360 0 min 0 W/m 10,3 C 11,4 C 3,2 km/h (1 Bft)
02/11/2011 06:00 11,5 C 93 % 1008,4 hPa 0,0 mm 5,4 km/h (2 Bft) SE 135 0 min 0 W/m 10,4 C 11,5 C 10,1 km/h (2 Bft)
02/11/2011 06:05 11,6 C 92 % 1008,4 hPa 0,0 mm 0,7 km/h (0 Bft) S-SE 157 0 min 0 W/m 10,3 C 11,6 C 3,2 km/h (1 Bft)
02/11/2011 06:10 11,7 C 92 % 1008,3 hPa 0,0 mm 3,6 km/h (1 Bft) S-SO 202 0 min 0 W/m 10,4 C 11,7 C 7,6 km/h (2 Bft)
02/11/2011 06:15 11,8 C 92 % 1008,3 hPa 0,0 mm 8,3 km/h (2 Bft) S 180 0 min 0 W/m 10,5 C 11,8 C 11,9 km/h (2 Bft)
02/11/2011 06:20 12,0 C 91 % 1008,2 hPa 0,0 mm 3,2 km/h (1 Bft) S 180 0 min 0 W/m 10,6 C 12,0 C 9,4 km/h (2 Bft)
02/11/2011 06:25 12,2 C 90 % 1008,2 hPa 0,0 mm 5,0 km/h (1 Bft) S 180 0 min 0 W/m 10,6 C 12,2 C 7,6 km/h (2 Bft)
02/11/2011 06:30 12,3 C 90 % 1008,1 hPa 0,0 mm 5,8 km/h (2 Bft) S-SE 157 0 min 0 W/m 10,7 C 12,3 C 9,7 km/h (2 Bft)
02/11/2011 06:35 12,4 C 89 % 1008,1 hPa 0,0 mm 1,8 km/h (1 Bft) S-SE 157 0 min 0 W/m 10,6 C 12,4 C 4,3 km/h (1 Bft)
02/11/2011 06:40 12,5 C 88 % 1008,1 hPa 0,0 mm 6,1 km/h (2 Bft) S-SO 202 0 min 0 W/m 10,6 C 12,5 C 10,1 km/h (2 Bft)
02/11/2011 06:45 12,6 C 88 % 1008,0 hPa 0,0 mm 11,9 km/h (2 Bft) S-SE 157 0 min 0 W/m 10,7 C 12,6 C 12,2 km/h (2 Bft)
02/11/2011 06:50 12,6 C 87 % 1007,9 hPa 0,0 mm 4,7 km/h (1 Bft) S 180 0 min 0 W/m 10,5 C 12,6 C 7,9 km/h (2 Bft)
02/11/2011 06:55 12,6 C 87 % 1007,8 hPa 0,0 mm 4,3 km/h (1 Bft) S-SE 157 0 min 0 W/m 10,5 C 12,6 C 8,6 km/h (2 Bft)
02/11/2011 07:00 12,6 C 87 % 1007,7 hPa 0,0 mm 5,0 km/h (1 Bft) S 180 0 min 0 W/m 10,5 C 12,6 C 12,2 km/h (2 Bft)
02/11/2011 07:05 12,6 C 87 % 1007,6 hPa 0,0 mm 0,0 km/h (0 Bft) SE 135 0 min 0 W/m 10,5 C 12,6 C 3,6 km/h (1 Bft)
02/11/2011 07:10 12,6 C 87 % 1007,6 hPa 0,0 mm 6,8 km/h (2 Bft) SE 135 0 min 0 W/m 10,5 C 12,6 C 16,6 km/h (3 Bft)
02/11/2011 07:15 12,7 C 86 % 1007,5 hPa 0,0 mm 6,5 km/h (2 Bft) S 180 0 min 0 W/m 10,4 C 12,7 C 8,3 km/h (2 Bft)
02/11/2011 07:20 12,8 C 86 % 1007,5 hPa 0,0 mm 6,8 km/h (2 Bft) S-SO 202 0 min 0 W/m 10,5 C 12,8 C 10,4 km/h (2 Bft)
02/11/2011 07:25 12,8 C 85 % 1007,5 hPa 0,0 mm 4,0 km/h (1 Bft) S-SE 157 0 min 0 W/m 10,3 C 12,8 C 7,9 km/h (2 Bft)
02/11/2011 07:30 12,9 C 85 % 1007,5 hPa 0,0 mm 6,8 km/h (2 Bft) S-SE 157 0 min 0 W/m 10,4 C 12,9 C 10,8 km/h (2 Bft)
02/11/2011 07:35 12,9 C 85 % 1007,4 hPa 0,0 mm 1,8 km/h (1 Bft) SE 135 0 min 0 W/m 10,4 C 12,9 C 3,2 km/h (1 Bft)
02/11/2011 07:40 12,9 C 85 % 1007,3 hPa 0,0 mm 3,6 km/h (1 Bft) S-SE 157 0 min 0 W/m 10,4 C 12,9 C 4,0 km/h (1 Bft)
02/11/2011 07:45 12,9 C 85 % 1007,3 hPa 0,0 mm 4,7 km/h (1 Bft) S-SE 157 0 min 0 W/m 10,4 C 12,9 C 9,7 km/h (2 Bft)
02/11/2011 07:50 13,0 C 85 % 1007,3 hPa 0,0 mm 6,8 km/h (2 Bft) S-SE 157 0 min 0 W/m 10,5 C 13,0 C 14,0 km/h (3 Bft)
02/11/2011 07:55 13,1 C 84 % 1007,3 hPa 0,0 mm 9,0 km/h (2 Bft) S-SE 157 0 min 0 W/m 10,5 C 13,1 C 11,2 km/h (2 Bft)
02/11/2011 08:00 13,2 C 83 % 1007,3 hPa 0,0 mm 9,7 km/h (2 Bft) S-SE 157 0 min 0 W/m 10,4 C 13,2 C 12,6 km/h (3 Bft)
02/11/2011 08:05 13,2 C 83 % 1007,3 hPa 0,0 mm 4,0 km/h (1 Bft) S-SE 157 0 min 0 W/m 10,4 C 13,2 C 4,0 km/h (1 Bft)
02/11/2011 08:10 13,2 C 83 % 1007,3 hPa 0,0 mm 4,0 km/h (1 Bft) S-SE 157 0 min 0 W/m 10,4 C 13,2 C 7,9 km/h (2 Bft)
02/11/2011 08:15 13,3 C 83 % 1007,3 hPa 0,0 mm 8,6 km/h (2 Bft) S-SE 157 0 min 0 W/m 10,5 C 13,3 C 15,5 km/h (3 Bft)
02/11/2011 08:20 13,3 C 83 % 1007,3 hPa 0,0 mm 9,4 km/h (2 Bft) SE 135 0 min 0 W/m 10,5 C 13,3 C 9,4 km/h (2 Bft)
02/11/2011 08:25 13,4 C 83 % 1007,2 hPa 0,0 mm 5,4 km/h (2 Bft) SE 135 0 min 0 W/m 10,6 C 13,4 C 5,4 km/h (2 Bft)
02/11/2011 08:30 13,4 C 82 % 1007,2 hPa 0,0 mm 9,4 km/h (2 Bft) S-SE 157 0 min 0 W/m 10,4 C 13,4 C 16,9 km/h (3 Bft)
02/11/2011 08:35 13,6 C 82 % 1007,2 hPa 0,0 mm 6,1 km/h (2 Bft) SE 135 0 min 0 W/m 10,6 C 13,6 C 11,5 km/h (2 Bft)
02/11/2011 08:40 13,6 C 81 % 1007,1 hPa 0,0 mm 3,6 km/h (1 Bft) SE 135 0 min 0 W/m 10,4 C 13,6 C 6,5 km/h (2 Bft)
02/11/2011 08:45 13,8 C 81 % 1007,1 hPa 0,0 mm 13,3 km/h (3 Bft) S-SE 157 0 min 0 W/m 10,6 C 13,8 C 24,8 km/h (4 Bft)
02/11/2011 08:50 13,8 C 81 % 1007,0 hPa 0,0 mm 6,5 km/h (2 Bft) E-SE 112 0 min 0 W/m 10,6 C 13,8 C 10,4 km/h (2 Bft)
02/11/2011 08:55 13,9 C 81 % 1007,0 hPa 0,0 mm 7,9 km/h (2 Bft) S-SE 157 0 min 0 W/m 10,7 C 13,9 C 17,3 km/h (3 Bft)
02/11/2011 09:00 13,9 C 80 % 1006,9 hPa 0,0 mm 15,1 km/h (3 Bft) S 180 0 min 0 W/m 10,5 C 13,9 C 25,2 km/h (4 Bft)
02/11/2011 09:05 14,0 C 80 % 1006,9 hPa 0,0 mm 9,7 km/h (2 Bft) SE 135 0 min 0 W/m 10,6 C 14,0 C 15,1 km/h (3 Bft)
02/11/2011 09:10 14,3 C 80 % 1006,9 hPa 0,0 mm 11,5 km/h (2 Bft) S-SE 157 0 min 0 W/m 10,9 C 14,3 C 17,3 km/h (3 Bft)
02/11/2011 09:15 14,8 C 79 % 1006,8 hPa 0,0 mm 11,2 km/h (2 Bft) S 180 0 min 0 W/m 11,2 C 14,8 C 14,4 km/h (3 Bft)
02/11/2011 09:20 15,1 C 79 % 1006,8 hPa 0,0 mm 12,2 km/h (2 Bft) SE 135 0 min 0 W/m 11,5 C 15,1 C 21,6 km/h (4 Bft)
02/11/2011 09:25 15,4 C 77 % 1006,8 hPa 0,0 mm 20,2 km/h (4 Bft) SE 135 0 min 0 W/m 11,4 C 15,4 C 29,2 km/h (5 Bft)
02/11/2011 09:30 15,8 C 77 % 1006,7 hPa 0,0 mm 14,4 km/h (3 Bft) E-SE 112 0 min 0 W/m 11,8 C 15,8 C 23,4 km/h (4 Bft)
02/11/2011 09:35 16,1 C 75 % 1006,6 hPa 0,0 mm 14,4 km/h (3 Bft) S-SO 202 0 min 0 W/m 11,7 C 16,1 C 18,4 km/h (3 Bft)
02/11/2011 09:40 16,5 C 74 % 1006,7 hPa 0,0 mm 11,5 km/h (2 Bft) S-SO 202 0 min 0 W/m 11,8 C 16,5 C 24,1 km/h (4 Bft)
02/11/2011 09:45 16,8 C 74 % 1006,5 hPa 0,0 mm 5,0 km/h (1 Bft) S-SE 157 0 min 0 W/m 12,1 C 16,8 C 10,4 km/h (2 Bft)
02/11/2011 09:50 16,8 C 73 % 1006,7 hPa 0,0 mm 10,8 km/h (2 Bft) S-SO 202 0 min 0 W/m 11,9 C 16,8 C 14,8 km/h (3 Bft)
02/11/2011 09:55 16,6 C 73 % 1006,6 hPa 0,0 mm 12,6 km/h (3 Bft) S-SO 202 0 min 0 W/m 11,7 C 16,6 C 12,6 km/h (3 Bft)
02/11/2011 10:00 16,3 C 73 % 1006,6 hPa 0,0 mm 13,3 km/h (3 Bft) S-SE 157 0 min 0 W/m 11,4 C 16,3 C 13,3 km/h (3 Bft)
02/11/2011 10:05 16,1 C 74 % 1006,6 hPa 0,0 mm 7,2 km/h (2 Bft) S-SE 157 0 min 0 W/m 11,5 C 16,1 C 7,6 km/h (2 Bft)
02/11/2011 10:10 15,9 C 75 % 1006,7 hPa 0,0 mm 12,2 km/h (2 Bft) S-SE 157 0 min 0 W/m 11,5 C 15,9 C 12,6 km/h (3 Bft)
02/11/2011 10:15 15,8 C 75 % 1006,6 hPa 0,0 mm 13,0 km/h (3 Bft) E-SE 112 0 min 0 W/m 11,4 C 15,8 C 17,6 km/h (3 Bft)
02/11/2011 10:20 15,8 C 76 % 1006,5 hPa 0,0 mm 4,7 km/h (1 Bft) S 180 0 min 0 W/m 11,6 C 15,8 C 8,6 km/h (2 Bft)
02/11/2011 10:25 15,7 C 76 % 1006,5 hPa 0,0 mm 9,7 km/h (2 Bft) S 180 0 min 0 W/m 11,5 C 15,7 C 14,4 km/h (3 Bft)
02/11/2011 10:30 15,8 C 76 % 1006,5 hPa 0,0 mm 8,3 km/h (2 Bft) O-SO 247 0 min 0 W/m 11,6 C 15,8 C 8,3 km/h (2 Bft)
02/11/2011 10:35 16,1 C 76 % 1006,5 hPa 0,0 mm 7,9 km/h (2 Bft) S 180 0 min 0 W/m 11,9 C 16,1 C 12,2 km/h (2 Bft)
02/11/2011 10:40 16,4 C 75 % 1006,4 hPa 0,0 mm 14,8 km/h (3 Bft) S-SE 157 0 min 0 W/m 12,0 C 16,4 C 24,5 km/h (4 Bft)
02/11/2011 10:45 16,8 C 74 % 1006,4 hPa 0,0 mm 15,1 km/h (3 Bft) S-SE 157 0 min 0 W/m 12,1 C 16,8 C 19,1 km/h (3 Bft)
02/11/2011 10:50 17,2 C 74 % 1006,3 hPa 0,0 mm 9,0 km/h (2 Bft) S-SE 157 0 min 0 W/m 12,5 C 17,2 C 13,3 km/h (3 Bft)
02/11/2011 10:55 17,8 C 73 % 1006,3 hPa 0,0 mm 10,8 km/h (2 Bft) SE 135 0 min 0 W/m 12,9 C 17,8 C 19,1 km/h (3 Bft)
02/11/2011 11:00 18,0 C 71 % 1006,3 hPa 0,0 mm 11,5 km/h (2 Bft) SE 135 0 min 0 W/m 12,7 C 18,0 C 15,1 km/h (3 Bft)
02/11/2011 11:05 18,1 C 71 % 1006,2 hPa 0,0 mm 19,4 km/h (3 Bft) SE 135 0 min 0 W/m 12,8 C 18,1 C 19,4 km/h (3 Bft)
02/11/2011 11:10 18,0 C 70 % 1006,2 hPa 0,0 mm 11,9 km/h (2 Bft) S-SE 157 0 min 0 W/m 12,4 C 18,0 C 13,0 km/h (3 Bft)
02/11/2011 11:15 18,0 C 71 % 1006,2 hPa 0,0 mm 19,8 km/h (3 Bft) S 180 0 min 0 W/m 12,7 C 18,0 C 34,6 km/h (5 Bft)
02/11/2011 11:20 18,1 C 71 % 1006,1 hPa 0,0 mm 20,9 km/h (4 Bft) S-SE 157 0 min 0 W/m 12,8 C 18,1 C 31,0 km/h (5 Bft)
02/11/2011 11:25 18,3 C 71 % 1006,0 hPa 0,0 mm 14,4 km/h (3 Bft) S 180 0 min 0 W/m 12,9 C 18,3 C 22,3 km/h (4 Bft)
02/11/2011 11:30 18,8 C 70 % 1005,9 hPa 0,0 mm 11,5 km/h (2 Bft) S-SO 202 0 min 0 W/m 13,2 C 18,8 C 18,0 km/h (3 Bft)
02/11/2011 11:35 19,3 C 69 % 1005,8 hPa 0,0 mm 17,3 km/h (3 Bft) S-SE 157 0 min 0 W/m 13,5 C 19,3 C 19,4 km/h (3 Bft)
02/11/2011 11:40 19,6 C 67 % 1005,7 hPa 0,0 mm 15,5 km/h (3 Bft) S-SE 157 0 min 0 W/m 13,3 C 19,6 C 28,4 km/h (5 Bft)
02/11/2011 11:45 19,8 C 67 % 1005,6 hPa 0,0 mm 9,7 km/h (2 Bft) S-SE 157 0 min 0 W/m 13,5 C 19,8 C 18,0 km/h (3 Bft)
02/11/2011 11:50 20,2 C 66 % 1005,5 hPa 0,0 mm 10,8 km/h (2 Bft) E-SE 112 0 min 0 W/m 13,6 C 20,2 C 11,5 km/h (2 Bft)
02/11/2011 11:55 20,3 C 65 % 1005,5 hPa 0,0 mm 16,9 km/h (3 Bft) SE 135 0 min 0 W/m 13,5 C 20,3 C 24,1 km/h (4 Bft)
02/11/2011 12:00 20,6 C 64 % 1005,4 hPa 0,0 mm 18,7 km/h (3 Bft) SE 135 0 min 0 W/m 13,5 C 20,6 C 23,8 km/h (4 Bft)
02/11/2011 12:05 20,4 C 65 % 1005,4 hPa 0,0 mm 7,9 km/h (2 Bft) S-SE 157 0 min 0 W/m 13,6 C 20,4 C 8,6 km/h (2 Bft)
02/11/2011 12:10 20,4 C 64 % 1005,3 hPa 0,0 mm 12,6 km/h (3 Bft) SE 135 0 min 0 W/m 13,4 C 20,4 C 24,8 km/h (4 Bft)
02/11/2011 12:15 20,4 C 64 % 1005,3 hPa 0,0 mm 10,1 km/h (2 Bft) S-SE 157 0 min 0 W/m 13,4 C 20,4 C 17,6 km/h (3 Bft)
02/11/2011 12:20 20,5 C 65 % 1005,4 hPa 0,0 mm 7,9 km/h (2 Bft) SO 225 0 min 0 W/m 13,7 C 20,5 C 7,9 km/h (2 Bft)
02/11/2011 12:25 20,6 C 64 % 1005,3 hPa 0,0 mm 9,4 km/h (2 Bft) SE 135 0 min 0 W/m 13,5 C 20,6 C 14,4 km/h (3 Bft)
02/11/2011 12:30 20,8 C 63 % 1005,3 hPa 0,0 mm 13,7 km/h (3 Bft) S-SE 157 0 min 0 W/m 13,5 C 20,8 C 20,2 km/h (4 Bft)
02/11/2011 12:35 20,8 C 63 % 1005,3 hPa 0,0 mm 9,7 km/h (2 Bft) S-SE 157 0 min 0 W/m 13,5 C 20,8 C 9,7 km/h (2 Bft)
02/11/2011 12:40 20,8 C 64 % 1005,2 hPa 0,0 mm 5,4 km/h (2 Bft) S-SE 157 0 min 0 W/m 13,7 C 20,8 C 6,1 km/h (2 Bft)
02/11/2011 12:45 20,9 C 63 % 1005,1 hPa 0,0 mm 9,7 km/h (2 Bft) S-SO 202 0 min 0 W/m 13,6 C 20,9 C 9,7 km/h (2 Bft)
02/11/2011 12:50 21,0 C 64 % 1005,0 hPa 0,0 mm 14,0 km/h (3 Bft) S-SE 157 0 min 0 W/m 13,9 C 21,0 C 28,1 km/h (5 Bft)
02/11/2011 12:55 20,9 C 62 % 1005,0 hPa 0,0 mm 16,9 km/h (3 Bft) SE 135 0 min 0 W/m 13,3 C 20,9 C 21,6 km/h (4 Bft)
02/11/2011 13:00 20,8 C 62 % 1004,9 hPa 0,0 mm 10,8 km/h (2 Bft) S-SE 157 0 min 0 W/m 13,2 C 20,8 C 19,1 km/h (3 Bft)
02/11/2011 13:05 20,8 C 63 % 1004,8 hPa 0,0 mm 14,0 km/h (3 Bft) SE 135 0 min 0 W/m 13,5 C 20,8 C 14,0 km/h (3 Bft)
02/11/2011 13:10 20,9 C 64 % 1004,6 hPa 0,0 mm 6,5 km/h (2 Bft) S-SE 157 0 min 0 W/m 13,8 C 20,9 C 17,3 km/h (3 Bft)
02/11/2011 13:15 21,1 C 63 % 1004,6 hPa 0,0 mm 5,0 km/h (1 Bft) SE 135 0 min 0 W/m 13,8 C 21,1 C 15,1 km/h (3 Bft)
02/11/2011 13:20 21,3 C 62 % 1004,8 hPa 0,0 mm 7,9 km/h (2 Bft) S-SO 202 0 min 0 W/m 13,7 C 21,3 C 10,8 km/h (2 Bft)
02/11/2011 13:25 21,4 C 62 % 1004,7 hPa 0,0 mm 11,9 km/h (2 Bft) S 180 0 min 0 W/m 13,8 C 21,4 C 16,9 km/h (3 Bft)
02/11/2011 13:30 21,4 C 61 % 1004,8 hPa 0,0 mm 9,0 km/h (2 Bft) SO 225 0 min 0 W/m 13,6 C 21,4 C 17,3 km/h (3 Bft)
02/11/2011 13:35 21,6 C 61 % 1004,8 hPa 0,0 mm 13,3 km/h (3 Bft) S-SO 202 0 min 0 W/m 13,7 C 21,6 C 18,4 km/h (3 Bft)
02/11/2011 13:40 21,6 C 62 % 1004,8 hPa 0,0 mm 8,6 km/h (2 Bft) S 180 0 min 0 W/m 14,0 C 21,6 C 8,6 km/h (2 Bft)
02/11/2011 13:45 21,8 C 63 % 1004,7 hPa 0,0 mm 5,4 km/h (2 Bft) S-SE 157 0 min 0 W/m 14,4 C 21,8 C 7,9 km/h (2 Bft)
02/11/2011 13:50 22,1 C 62 % 1004,7 hPa 0,0 mm 8,3 km/h (2 Bft) S-SE 157 0 min 0 W/m 14,5 C 22,1 C 9,4 km/h (2 Bft)
02/11/2011 13:55 21,9 C 61 % 1004,6 hPa 0,0 mm 9,0 km/h (2 Bft) SE 135 0 min 0 W/m 14,0 C 21,9 C 9,0 km/h (2 Bft)
02/11/2011 14:00 21,8 C 61 % 1004,5 hPa 0,0 mm 11,5 km/h (2 Bft) S-SE 157 0 min 0 W/m 13,9 C 21,8 C 16,2 km/h (3 Bft)
02/11/2011 14:05 21,8 C 61 % 1004,5 hPa 0,0 mm 12,6 km/h (3 Bft) SE 135 0 min 0 W/m 13,9 C 21,8 C 20,2 km/h (4 Bft)
02/11/2011 14:10 21,9 C 60 % 1004,4 hPa 0,0 mm 13,0 km/h (3 Bft) S 180 0 min 0 W/m 13,8 C 21,9 C 22,3 km/h (4 Bft)
02/11/2011 14:15 22,0 C 60 % 1004,4 hPa 0,0 mm 9,4 km/h (2 Bft) O-SO 247 0 min 0 W/m 13,9 C 22,0 C 15,8 km/h (3 Bft)
02/11/2011 14:20 21,9 C 60 % 1004,3 hPa 0,0 mm 7,9 km/h (2 Bft) S-SE 157 0 min 0 W/m 13,8 C 21,9 C 10,4 km/h (2 Bft)
02/11/2011 14:25 21,8 C 60 % 1004,2 hPa 0,0 mm 10,8 km/h (2 Bft) S 180 0 min 0 W/m 13,7 C 21,8 C 11,2 km/h (2 Bft)
02/11/2011 14:30 21,6 C 60 % 1004,0 hPa 0,0 mm 6,5 km/h (2 Bft) S-SO 202 0 min 0 W/m 13,5 C 21,6 C 6,5 km/h (2 Bft)
02/11/2011 14:35 21,6 C 61 % 1003,9 hPa 0,0 mm 10,1 km/h (2 Bft) S-SE 157 0 min 0 W/m 13,7 C 21,6 C 12,6 km/h (3 Bft)
02/11/2011 14:40 21,8 C 61 % 1003,8 hPa 0,0 mm 10,1 km/h (2 Bft) S 180 0 min 0 W/m 13,9 C 21,8 C 14,4 km/h (3 Bft)
02/11/2011 14:45 21,9 C 61 % 1003,8 hPa 0,0 mm 10,1 km/h (2 Bft) S 180 0 min 0 W/m 14,0 C 21,9 C 15,5 km/h (3 Bft)
02/11/2011 14:50 22,1 C 60 % 1003,7 hPa 0,0 mm 10,8 km/h (2 Bft) E-SE 112 0 min 0 W/m 14,0 C 22,1 C 13,3 km/h (3 Bft)
02/11/2011 14:55 22,1 C 59 % 1003,7 hPa 0,0 mm 18,4 km/h (3 Bft) SO 225 0 min 0 W/m 13,7 C 22,1 C 18,4 km/h (3 Bft)
02/11/2011 15:00 21,9 C 60 % 1003,7 hPa 0,0 mm 10,4 km/h (2 Bft) S-SE 157 0 min 0 W/m 13,8 C 21,9 C 18,7 km/h (3 Bft)
02/11/2011 15:05 21,8 C 60 % 1003,6 hPa 0,0 mm 10,4 km/h (2 Bft) N 360 0 min 0 W/m 13,7 C 21,8 C 10,4 km/h (2 Bft)
02/11/2011 15:10 21,6 C 60 % 1003,6 hPa 0,0 mm 9,0 km/h (2 Bft) S 180 0 min 0 W/m 13,5 C 21,6 C 14,0 km/h (3 Bft)
02/11/2011 15:15 21,5 C 61 % 1003,7 hPa 0,0 mm 4,7 km/h (1 Bft) S-SO 202 0 min 0 W/m 13,7 C 21,5 C 4,7 km/h (1 Bft)
02/11/2011 15:20 21,5 C 62 % 1003,6 hPa 0,0 mm 7,2 km/h (2 Bft) S 180 0 min 0 W/m 13,9 C 21,5 C 11,5 km/h (2 Bft)
02/11/2011 15:25 21,8 C 61 % 1003,5 hPa 0,0 mm 12,2 km/h (2 Bft) S-SO 202 0 min 0 W/m 13,9 C 21,8 C 12,2 km/h (2 Bft)
02/11/2011 15:30 21,7 C 60 % 1003,5 hPa 0,0 mm 7,2 km/h (2 Bft) S-SE 157 0 min 0 W/m 13,6 C 21,7 C 9,0 km/h (2 Bft)
02/11/2011 15:35 21,6 C 60 % 1003,5 hPa 0,0 mm 9,7 km/h (2 Bft) S 180 0 min 0 W/m 13,5 C 21,6 C 13,3 km/h (3 Bft)
02/11/2011 15:40 21,4 C 60 % 1003,5 hPa 0,0 mm 14,8 km/h (3 Bft) SE 135 0 min 0 W/m 13,3 C 21,4 C 25,6 km/h (4 Bft)
02/11/2011 15:45 21,2 C 60 % 1003,4 hPa 0,0 mm 12,6 km/h (3 Bft) S-SE 157 0 min 0 W/m 13,1 C 21,2 C 16,6 km/h (3 Bft)
02/11/2011 15:50 21,1 C 62 % 1003,5 hPa 0,0 mm 5,0 km/h (1 Bft) S-SO 202 0 min 0 W/m 13,5 C 21,1 C 6,5 km/h (2 Bft)
02/11/2011 15:55 20,9 C 62 % 1003,4 hPa 0,0 mm 8,3 km/h (2 Bft) S-SO 202 0 min 0 W/m 13,3 C 20,9 C 11,5 km/h (2 Bft)
02/11/2011 16:00 20,8 C 63 % 1003,4 hPa 0,0 mm 4,7 km/h (1 Bft) S-SO 202 0 min 0 W/m 13,5 C 20,8 C 14,0 km/h (3 Bft)
02/11/2011 16:05 20,8 C 64 % 1003,4 hPa 0,0 mm 7,2 km/h (2 Bft) S 180 0 min 0 W/m 13,7 C 20,8 C 7,2 km/h (2 Bft)
02/11/2011 16:10 20,8 C 64 % 1003,3 hPa 0,0 mm 3,2 km/h (1 Bft) S-SO 202 0 min 0 W/m 13,7 C 20,8 C 3,6 km/h (1 Bft)
02/11/2011 16:15 20,8 C 64 % 1003,3 hPa 0,0 mm 6,5 km/h (2 Bft) S-SO 202 0 min 0 W/m 13,7 C 20,8 C 8,6 km/h (2 Bft)
02/11/2011 16:20 20,8 C 64 % 1003,3 hPa 0,0 mm 6,8 km/h (2 Bft) S 180 0 min 0 W/m 13,7 C 20,8 C 8,6 km/h (2 Bft)
02/11/2011 16:25 20,8 C 64 % 1003,2 hPa 0,0 mm 5,4 km/h (2 Bft) S-SO 202 0 min 0 W/m 13,7 C 20,8 C 8,6 km/h (2 Bft)
02/11/2011 16:30 20,6 C 65 % 1003,1 hPa 0,0 mm 5,4 km/h (2 Bft) S-SE 157 0 min 0 W/m 13,8 C 20,6 C 6,5 km/h (2 Bft)
02/11/2011 16:35 20,6 C 65 % 1003,1 hPa 0,0 mm 3,6 km/h (1 Bft) S-SO 202 0 min 0 W/m 13,8 C 20,6 C 7,6 km/h (2 Bft)
02/11/2011 16:40 20,5 C 65 % 1003,1 hPa 0,0 mm 2,5 km/h (1 Bft) S 180 0 min 0 W/m 13,7 C 20,5 C 2,9 km/h (1 Bft)
02/11/2011 16:45 20,4 C 65 % 1003,1 hPa 0,0 mm 3,6 km/h (1 Bft) S 180 0 min 0 W/m 13,6 C 20,4 C 9,7 km/h (2 Bft)
02/11/2011 16:50 20,3 C 65 % 1003,1 hPa 0,0 mm 5,4 km/h (2 Bft) S 180 0 min 0 W/m 13,5 C 20,3 C 7,9 km/h (2 Bft)
02/11/2011 16:55 20,2 C 66 % 1002,9 hPa 0,0 mm 4,3 km/h (1 Bft) S-SE 157 0 min 0 W/m 13,6 C 20,2 C 8,3 km/h (2 Bft)
02/11/2011 17:00 20,1 C 66 % 1002,9 hPa 0,0 mm 11,9 km/h (2 Bft) SE 135 0 min 0 W/m 13,5 C 20,1 C 12,2 km/h (2 Bft)
02/11/2011 17:05 20,0 C 66 % 1002,9 hPa 0,0 mm 6,1 km/h (2 Bft) S-SE 157 0 min 0 W/m 13,4 C 20,0 C 7,9 km/h (2 Bft)
02/11/2011 17:10 19,9 C 67 % 1002,9 hPa 0,0 mm 4,7 km/h (1 Bft) S-SE 157 0 min 0 W/m 13,6 C 19,9 C 9,4 km/h (2 Bft)
02/11/2011 17:15 19,8 C 67 % 1002,8 hPa 0,0 mm 5,8 km/h (2 Bft) S 180 0 min 0 W/m 13,5 C 19,8 C 10,1 km/h (2 Bft)
02/11/2011 17:20 19,8 C 68 % 1002,6 hPa 0,0 mm 4,0 km/h (1 Bft) SE 135 0 min 0 W/m 13,7 C 19,8 C 4,3 km/h (1 Bft)
02/11/2011 17:25 19,6 C 68 % 1002,6 hPa 0,0 mm 6,5 km/h (2 Bft) SE 135 0 min 0 W/m 13,5 C 19,6 C 8,3 km/h (2 Bft)
02/11/2011 17:30 19,5 C 68 % 1002,6 hPa 0,0 mm 7,2 km/h (2 Bft) SE 135 0 min 0 W/m 13,4 C 19,5 C 7,6 km/h (2 Bft)
02/11/2011 17:35 19,4 C 68 % 1002,5 hPa 0,0 mm 5,8 km/h (2 Bft) SE 135 0 min 0 W/m 13,3 C 19,4 C 5,8 km/h (2 Bft)
02/11/2011 17:40 19,4 C 68 % 1002,4 hPa 0,0 mm 5,0 km/h (1 Bft) S-SE 157 0 min 0 W/m 13,3 C 19,4 C 11,2 km/h (2 Bft)
02/11/2011 17:45 19,3 C 69 % 1002,3 hPa 0,0 mm 6,1 km/h (2 Bft) S-SE 157 0 min 0 W/m 13,5 C 19,3 C 6,1 km/h (2 Bft)
02/11/2011 17:50 19,2 C 69 % 1002,4 hPa 0,0 mm 1,8 km/h (1 Bft) S-SO 202 0 min 0 W/m 13,4 C 19,2 C 6,5 km/h (2 Bft)
02/11/2011 17:55 19,1 C 69 % 1002,3 hPa 0,0 mm 5,0 km/h (1 Bft) S-SO 202 0 min 0 W/m 13,3 C 19,1 C 7,9 km/h (2 Bft)
02/11/2011 18:00 19,0 C 70 % 1002,3 hPa 0,0 mm 8,6 km/h (2 Bft) S-SE 157 0 min 0 W/m 13,4 C 19,0 C 10,8 km/h (2 Bft)
02/11/2011 18:05 18,9 C 70 % 1002,1 hPa 0,0 mm 5,4 km/h (2 Bft) S-SE 157 0 min 0 W/m 13,3 C 18,9 C 9,4 km/h (2 Bft)
02/11/2011 18:10 18,9 C 70 % 1002,2 hPa 0,0 mm 4,7 km/h (1 Bft) S-SE 157 0 min 0 W/m 13,3 C 18,9 C 10,1 km/h (2 Bft)
02/11/2011 18:15 18,8 C 70 % 1002,1 hPa 0,0 mm 2,9 km/h (1 Bft) S 180 0 min 0 W/m 13,2 C 18,8 C 4,0 km/h (1 Bft)
02/11/2011 18:20 18,8 C 70 % 1002,1 hPa 0,0 mm 6,5 km/h (2 Bft) S-SE 157 0 min 0 W/m 13,2 C 18,8 C 10,8 km/h (2 Bft)
02/11/2011 18:25 18,6 C 70 % 1002,1 hPa 0,0 mm 5,8 km/h (2 Bft) S-SE 157 0 min 0 W/m 13,0 C 18,6 C 7,9 km/h (2 Bft)
02/11/2011 18:30 18,7 C 70 % 1002,1 hPa 0,0 mm 3,6 km/h (1 Bft) S-SE 157 0 min 0 W/m 13,1 C 18,7 C 6,5 km/h (2 Bft)
02/11/2011 18:35 18,7 C 70 % 1002,0 hPa 0,0 mm 6,5 km/h (2 Bft) S-SO 202 0 min 0 W/m 13,1 C 18,7 C 7,9 km/h (2 Bft)
02/11/2011 18:40 18,8 C 70 % 1001,9 hPa 0,0 mm 4,3 km/h (1 Bft) SE 135 0 min 0 W/m 13,2 C 18,8 C 4,3 km/h (1 Bft)
02/11/2011 18:45 18,8 C 70 % 1001,9 hPa 0,0 mm 7,9 km/h (2 Bft) S 180 0 min 0 W/m 13,2 C 18,8 C 12,2 km/h (2 Bft)
02/11/2011 18:50 18,8 C 69 % 1001,8 hPa 0,0 mm 11,2 km/h (2 Bft) S-SE 157 0 min 0 W/m 13,0 C 18,8 C 14,8 km/h (3 Bft)
02/11/2011 18:55 18,9 C 69 % 1001,8 hPa 0,0 mm 11,5 km/h (2 Bft) S-SE 157 0 min 0 W/m 13,1 C 18,9 C 18,7 km/h (3 Bft)
02/11/2011 19:00 19,0 C 69 % 1001,8 hPa 0,0 mm 5,8 km/h (2 Bft) S-SE 157 0 min 0 W/m 13,2 C 19,0 C 9,4 km/h (2 Bft)
_ Min-Heure 00:30 14:55 19:00 - 07:05 - - - - 00:25 00:30 05:15
Minimum _ 8,6 C 59 % 1001,8 hPa - 0,0 km/h (0 Bft) - - - - 7,5 C 8,6 C 0,0 km/h (0 Bft)
_ Max-Heure 14:55 05:45 00:10 19:00 11:20 - - 19:00 19:00 13:50 14:55 11:15
Maximum _ 22,1 C 94 % 1013,3 hPa 0,0 mm 20,9 km/h
S-SE (4 Bft)
- - 0 min 0 W/m 14,5 C 22,1 C 34,6 km/h
S (5 Bft)
Moyenne _ 15,3 C 78 % 1007,0 hPa #0,0 mm 6,5 km/h (2 Bft) S-SE - #0 min. 0 W/m 11,3 C 15,3 C 9,9 km/h (2 Bft)
Saint Bonnet de Bellac- Haute Vienne - France